Terminal Aerodrome Forecast
Issued by NWS

Home | Current Version | Previous Version | Text Only | Print | Product List | Glossary On
Versions: 1 2 3 4 5 6 7 8 9 10 11 12 13 14 15
000
FTUS42 TJSJ 050525
TAFJBQ
TAF
TJBQ 050525Z 0506/0606 12004KT P6SM FEW030
     FM051430 05010KT P6SM FEW025 SCT050
     FM051630 06010KT P6SM VCTS SCT025CB BKN040
     FM052300 VRB05KT P6SM SCT025
      AMD NOT SKED TIL 051100=

USA.gov is the U.S. government's official web portal to all federal, state and local government web resources and services.